Home   Weather   Chesapeake   Past weeks

Flag for USA Past Weather in Chesapeake, Virginia, USA — Yesterday and Last 2 Weeks

Now
81 °F

Sunny.


Feels Like: 85 °F
Forecast: 73 / 96 °F
Wind: No wind

Location: Chesapeake Municipal Airport

Current Time: Jul 20, 2017 at 9:04:50 pm

Latest Report: Jul 20, 2017 at 8:15 pm


Visibility: 10 mi

Pressure: 29.96 "Hg

Humidity: 76%

Dew Point: 72 °F

Location of ChesapeakeLocation

Past Weather in Chesapeake — Graph

°F

Chesapeake Temperature Yesterday

Maximum temperature yesterday: 88 °F (at 3:15 pm)
Minimum temperature yesterday: 70 °F (at 4:35 am)
Average temperature yesterday: 79 °F

High & Low Weather Summary for the Past Weeks

 TemperatureHumidityPressure
High94 °F (Jul 14, 3:35 pm)99% (Jul 9, 5:35 am)30.13 "Hg (Jul 9, 5:35 am)
Low69 °F (Jul 9, 6:15 am)43% (Jul 8, 4:35 pm)29.83 "Hg (Jul 7, 5:55 pm)
Average80 °F80%30.02 "Hg
* Reported Jul 5 7:35 pm — Jul 20 7:55 pm, Chesapeake. Weather by CustomWeather, © 2017

Note: Actual official high and low records may vary slightly from our data, if they occured in-between our weather recording intervals... More about our weather records

Advertising

Chesapeake Weather History for the Previous 24 Hours

Scroll right to see more
 ConditionsComfort  
Time TempWeatherWind HumidityBarometerVisibility
7:55 pm
Thu, Jul 20
82 °FSunny.5 mph74%29.95 "Hg7 mi
7:35 pm83 °FSunny.3 mph72%29.95 "Hg10 mi
7:15 pm85 °FSunny.5 mph68%29.95 "Hg10 mi
6:55 pm85 °FSunny.7 mph68%29.94 "Hg10 mi
6:35 pm86 °FSunny.5 mph70%29.95 "Hg10 mi
6:15 pm88 °FSunny.9 mph65%29.95 "Hg10 mi
5:55 pm89 °FSunny.5 mph61%29.96 "Hg10 mi
5:35 pm90 °FSunny.3 mph60%29.96 "Hg10 mi
5:15 pm90 °FSunny.3 mph57%29.97 "Hg10 mi
4:55 pm89 °FSunny.6 mph63%29.97 "Hg10 mi
4:35 pm90 °FScattered clouds.7 mph60%29.98 "Hg10 mi
4:15 pm89 °FScattered clouds.5 mph61%29.98 "Hg10 mi
3:35 pm90 °FSunny.8 mph56%29.99 "Hg10 mi
2:55 pm91 °FScattered clouds.7 mph57%30.00 "Hg10 mi
2:35 pm91 °FSunny.5 mph53%30.01 "Hg10 mi
1:55 pm90 °FSunny.3 mph49%30.02 "Hg10 mi
1:35 pm90 °FSunny.6 mph54%30.02 "Hg10 mi
1:15 pm90 °FSunny.5 mph53%30.03 "Hg10 mi
12:55 pm89 °FSunny.6 mph57%30.04 "Hg10 mi
12:35 pm89 °FSunny.3 mph60%30.04 "Hg10 mi
12:15 pm88 °FSunny.No wind64%30.05 "Hg10 mi
11:55 am88 °FSunny.No wind62%30.05 "Hg7 mi
11:35 am87 °FSunny.No wind65%30.05 "Hg10 mi
11:15 am87 °FSunny.3 mph66%30.05 "Hg10 mi
10:55 am85 °FSunny.3 mph69%30.05 "Hg10 mi
10:35 am84 °FSunny.No wind70%30.05 "Hg10 mi
10:15 am84 °FSunny.No wind71%30.05 "Hg7 mi
9:55 am83 °FSunny.No wind75%30.05 "Hg7 mi
9:35 am81 °FSunny.No wind79%30.05 "Hg10 mi
7:55 am75 °FSunny.No wind90%30.06 "Hg10 mi
7:35 am74 °FSunny.No wind93%30.05 "Hg10 mi
7:15 am72 °FSunny.No wind96%30.05 "Hg10 mi
6:55 am71 °FSunny.3 mph97%30.05 "Hg7 mi
6:35 am70 °FSunny.No wind97%30.05 "Hg7 mi
6:15 am70 °FSunny.No wind97%30.05 "Hg7 mi
5:55 am70 °FFog.No wind98%30.04 "Hg5 mi
5:35 am70 °FClear.No wind98%30.04 "Hg10 mi
5:15 am70 °FClear.No wind97%30.04 "Hg10 mi
4:55 am70 °FClear.No wind97%30.04 "Hg10 mi
4:35 am70 °FClear.No wind97%30.04 "Hg10 mi
4:15 am71 °FClear.No wind95%30.04 "Hg10 mi
3:55 am71 °FClear.No wind96%30.04 "Hg10 mi
3:35 am72 °FClear.No wind93%30.04 "Hg10 mi
2:55 am72 °FClear.No wind93%30.04 "Hg10 mi
2:35 am72 °FClear.5 mph94%30.04 "Hg10 mi
1:55 am73 °FClear.No wind91%30.05 "Hg10 mi
1:35 am72 °FClear.3 mph93%30.05 "Hg10 mi
1:15 am73 °FClear.3 mph92%30.05 "Hg10 mi
12:55 am73 °FClear.3 mph92%30.05 "Hg10 mi
12:35 am74 °FClear.5 mph91%30.06 "Hg10 mi
12:15 am74 °FClear.5 mph91%30.07 "Hg10 mi
11:55 pm
Wed, Jul 19
75 °FClear.3 mph93%30.07 "Hg10 mi
11:35 pm75 °FClear.No wind92%30.07 "Hg10 mi
11:15 pm75 °FClear.No wind91%30.07 "Hg10 mi
10:55 pm76 °FClear.No wind89%30.08 "Hg10 mi
10:35 pm76 °FClear.5 mph88%30.07 "Hg10 mi
10:15 pm77 °FClear.5 mph87%30.07 "Hg10 mi
9:55 pm78 °FClear.6 mph84%30.07 "Hg7 mi
9:35 pm77 °FClear.3 mph85%30.07 "Hg10 mi
Weather by CustomWeather, © 2017

See weather overviewHow to use our weather pages